Location: Clairmont
(55.2667°N, 118.8000°W)
Time: 15:09:22
(UTC+00:00)

Envisat - Pass Details

Date: 29 October 2020
Orbit: 764 x 766 km, 98.1° (Epoch: 03 December)

Event Time Altitude Azimuth Distance (km) Brightness Sun altitude
Rises 14:02:24 0° 16° (NNE) 3,248 6.3 -8.0°
Reaches altitude 10° 14:04:44 10° 18° (NNE) 2,317 5.6 -7.6°
Maximum altitude 14:09:51 73° 104° (ESE) 806 3.4 -6.9°
Drops below altitude 10° 14:14:55 10° 189° (S) 2,299 5.6 -6.2°
Sets 14:17:13 0° 191° (SSW) 3,221 6.3 -5.9°
